Spokane Felts, WA
on Thursday, November 22, 2012

Thursday
Previous Day Next Day
Daily Summary
 ActualAverageRecord
Temperature
Mean Temperature °F 35°F  
Max Temperature 44°F 41°F 54°F (2011)
Min Temperature 29°F 29°F 6°F (2003)
Degree Days
Heating Degree Days 28 30  
Month to date heating degree days 499 583  
Since 1 July heating degree days 1058 1320  
Cooling Degree Days 0 0  
Month to date cooling degree days 0 0  
Year to date cooling degree days 509 406  
Moisture
Dew Point 29°F   
Average Humidity 73    
Maximum Humidity 92    
Minimum Humidity 53    
Precipitation
Precipitation 0.00 in 0.08 in 0.60 in (2006)
Month to date precipitation 2.51 1.60  
Year to date precipitation 18.10 14.55  
Wind
Wind Speed 1 mph   
Max Wind Speed 12 mph   
Max Gust Speed 15 mph   
Visibility 10 miles   
Events     

Key: T is trace of precipitation, MM is missing value
Source: NWS Daily Summary
Time(PST)TemperatureDew PointHumidity Pressure Visibility Wind DirectionWind SpeedGust SpeedPrecipitationEvents Conditions
12:53 AM 35.1°F 28.0°F 76% 30.24 in 10.0 miles WSW 5.8 mph - N/A   Scattered Clouds
1:53 AM 35.1°F 28.0°F 76% 30.29 in 10.0 miles Calm Calm - N/A   Partly Cloudy
2:53 AM 34.0°F 28.0°F 79% 30.32 in 10.0 miles WSW 3.5 mph - N/A   Mostly Cloudy
3:53 AM 33.1°F 27.0°F 78% 30.34 in 10.0 miles Calm Calm - N/A   Clear
4:53 AM 30.9°F 28.0°F 89% 30.38 in 10.0 miles Calm Calm - N/A   Clear
5:53 AM 28.9°F 26.1°F 89% 30.41 in 10.0 miles Calm Calm - N/A   Clear
6:53 AM 32.0°F 28.0°F 85% 30.43 in 10.0 miles Calm Calm - N/A   Clear
7:53 AM 33.1°F 28.9°F 85% 30.46 in 10.0 miles Calm Calm - N/A   Partly Cloudy
8:53 AM 36.0°F 28.9°F 76% 30.48 in 10.0 miles Calm Calm - N/A   Scattered Clouds
9:53 AM 37.9°F 30.0°F 73% 30.50 in 10.0 miles Calm Calm - N/A   Partly Cloudy
10:53 AM 39.9°F 28.9°F 65% 30.50 in 10.0 miles Calm Calm - N/A   Partly Cloudy
11:53 AM 41.0°F 28.9°F 62% 30.50 in 10.0 miles South 3.5 mph - N/A   Scattered Clouds
12:53 PM 43.0°F 27.0°F 53% 30.48 in 10.0 miles SSE 5.8 mph - N/A   Scattered Clouds
1:53 PM 44.1°F 28.0°F 53% 30.47 in 10.0 miles SE 4.6 mph - N/A   Partly Cloudy
2:53 PM 43.0°F 28.0°F 56% 30.48 in 10.0 miles East 4.6 mph - N/A   Scattered Clouds
3:53 PM 41.0°F 30.0°F 65% 30.48 in 10.0 miles Calm Calm - N/A   Partly Cloudy
4:53 PM 37.0°F 30.0°F 76% 30.48 in 10.0 miles Calm Calm - N/A   Clear
5:53 PM 35.1°F 28.9°F 78% 30.48 in 10.0 miles Calm Calm - N/A   Clear
6:53 PM 36.0°F 28.9°F 76% 30.47 in 10.0 miles Calm Calm - N/A   Clear
7:53 PM 35.1°F 28.9°F 78% 30.45 in 10.0 miles Calm Calm - N/A   Mostly Cloudy
8:53 PM 34.0°F 28.9°F 82% 30.44 in 10.0 miles Calm Calm - N/A   Mostly Cloudy
9:53 PM 35.1°F 30.0°F 82% 30.43 in 10.0 miles Calm Calm - N/A   Mostly Cloudy
10:53 PM 34.0°F 28.9°F 82% 30.42 in 10.0 miles Calm Calm - N/A   Partly Cloudy
11:53 PM 36.0°F 28.9°F 76% 30.41 in 10.0 miles Calm Calm - N/A   Overcast
Moon Phase
Nov. 22 Nov. 28 Dec. 06 Dec. 13 Dec. 20
Sunrise:07:05 AM (PST) Moon Rise:01:12 PM (PST)11/22
Sunset:04:05 PM (PST) Moon Set:01:08 AM (PST)11/22

Copyright © 2014 The Weather Underground, Inc.